Regional Weather Roundup
Issued by NWS

Home | Current Version | Previous Version | Graphics & Text | Print | Product List | Glossary On
Versions: 1 2 3 4 5 6 7 8 9 10 11 12 13 14 15 16 17 18 19 20 21 22 23 24 25 26 27 28 29 30 31 32 33 34 35 36 37 38 39 40 41 42 43 44 45 46 47 48 49 50
289
ASUS43 KLSX 251859
RWRMO

WEATHER SUMMARY FOR MISSOURI
NATIONAL WEATHER SERVICE SPRINGFIELD MO
200 PM CDT SAT MAR 25 2017

NOTE: "FAIR" INDICATES FEW OR NO CLOUDS BELOW 12,000 FEET WITH NO
       SIGNIFICANT WEATHER AND/OR OBSTRUCTIONS TO VISIBILITY.
       CURRENT SKY AND/OR WEATHER CONDITIONS ARE NOT AVAILABLE FOR
       CHILLICOTHE AND FARMINGTON.

MOZ001>031-035>038-043-044-053-054-252000-
...NORTHERN AND WESTERN MISSOURI...

CITY           SKY/WX    TMP DP  RH WIND       PRES   REMARKS
KANSAS CTY INT CLOUDY    52  50  93 N12       29.84S
KANSAS C DTWN  CLOUDY    54  52  93 N10       29.83S
LEE`S SUMMIT   CLOUDY    57  54  89 N14       29.81F
ST JOSEPH      CLOUDY    50  47  89 N10       29.87F
CHILLICOTHE      N/A     54  50  86 N9        29.85F
KIRKSVILLE     CLOUDY    52  51  97 N12       29.85R FOG

$$
MOZ066>068-077>081-088>096-101>105-252000-
...SOUTHWEST MISSOURI...

CITY           SKY/WX    TMP DP  RH WIND       PRES   REMARKS
SPRINGFIELD    LGT RAIN  53  51  93 W13       29.82R
JOPLIN         CLOUDY    50  47  89 W16       29.87R
BRANSON        LGT RAIN  54  54 100 W12       29.85R FOG

$$
MOZ032>034-039>042-045>050-055>058-069>072-252000-
...CENTRAL MISSOURI...

CITY           SKY/WX    TMP DP  RH WIND       PRES   REMARKS
COLUMBIA       RAIN      58  57  97 E6        29.81F FOG
JEFFERSON CITY LGT RAIN  60  56  86 NE7       29.80F
ROLLA          CLOUDY    60  57  89 SE8       29.78F
SEDALIA        CLOUDY    62  52  69 VRB5      29.81F
WARRENSBURG    CLOUDY    61  52  72 N7        29.80F
OSAGE BEACH    RAIN     N/A N/A N/A NE5       29.80F

$$
MOZ051-052-059>065-252000-
...EAST CENTRAL MISSOURI...

CITY           SKY/WX    TMP DP  RH WIND       PRES   REMARKS
ST LOUIS INTL  NOT AVBL
SPIRIT OF STL  CLOUDY    62  59  90 VRB6      29.84F
ST CHARLES     CLOUDY    61  58  90 SE9       29.85F

$$
MOZ072>076-082>087-097>100-106>115-252000-
...SOUTH CENTRAL AND SOUTHEAST MISSOURI...

CITY           SKY/WX    TMP DP  RH WIND       PRES   REMARKS
CAPE GIRARDEAU CLOUDY    62  57  83 S16       29.89F
FARMINGTON     LGT RAIN  60  58  92 S15       29.85F
POPLAR BLUFF   CLOUDY    64  60  87 S20       29.86F
WEST PLAINS    PTSUNNY   62  54  74 S8        29.80F

$$




USA.gov is the U.S. government's official web portal to all federal, state and local government web resources and services.